User: anonymous   Login
Location: Unspecified
(0.0000°N, 0.0000°E)
Time: 05:22:32
(UTC+01:00)
Language:

AO-7 - Orbit

View from above orbital plane
View from above orbital plane
View from above satellite
View from above satellite

Ground track
Ground track

The orbit data is extracted from the following two-line orbital elements,

1 07530U 74089B   14356.56512922 -.00000022  00000-0  13332-3 0  1491
2 07530 101.4981 332.3567 0011675 288.2847 186.1299 12.53610180835121
Epoch (UTC): 22 December 2014 13:33:47
Eccentricity: 0.0011675
inclination: 101.4981°
perigee height: 1440 km
apogee height: 1458 km
right ascension of ascending node: 332.3567°
argument of perigee: 288.2847°
revolutions per day: 12.53610180
mean anomaly at epoch: 186.1299°
orbit number at epoch: 83512

The dashed part of the orbit path shows where the satellite is in the earth's shadow,  

DLR